Wind_Speed
9 10 10 10 9 10 11 12 13 13 14 14 13 13 11 9 6 4 2 2 3 4 4 5 5 6 6 6 6 5 5 5 5 5 4 5 7 9 9 9 10 13 15 13 12 11 10 9 8 8 6 4 3 1 2 3 4 4 4 3 3 4 3 4 4 3 8 10 10 12 11 9 10 8 7 7 8 10 10 10 11 11 12 16 19 21 20 18
10 10 10 9 9 10 11 12 13 13 14 14 15 14 13 12 9 6 4 2 2 3 4 5 6 6 6 6 5 4 4 3 3 4 4 5 6 8 9 10 10 13 15 14 13 12 11 10 9 8 6 4 2 1 3 3 4 3 2 2 2 5 5 4 3 3 5 11 11 12 11 9 10 11 9 7 9 10 10 12 13 16 17 19 21 20 19 17
10 11 10 8 8 9 10 12 13 13 14 15 16 15 15 13 11 9 7 4 3 3 4 6 6 6 5 5 4 3 3 2 4 4 4 4 5 7 9 10 11 14 15 13 12 10 8 8 9 8 6 4 1 1 2 3 3 2 2 2 4 5 6 5 4 3 3 12 13 11 10 9 9 10 8 6 9 9 8 12 13 16 19 20 20 19 18 16
10 11 10 7 7 8 9 11 12 13 14 15 16 16 16 15 13 11 8 6 5 4 5 6 6 6 5 4 3 2 2 3 4 3 5 2 4 7 9 10 11 16 16 13 11 9 6 7 8 6 5 4 1 2 2 2 4 3 3 3 6 2 5 6 4 3 4 12 13 11 10 10 10 8 7 7 7 6 7 11 11 16 21 21 20 18 17 15
10 10 9 6 7 8 8 10 11 12 14 15 15 16 16 15 15 12 9 7 5 4 4 5 6 6 4 3 1 1 1 3 3 5 5 1 4 7 9 10 11 15 17 14 11 8 8 8 8 6 6 4 1 2 0 2 4 3 2 5 5 1 4 5 4 3 6 10 12 12 10 10 10 7 7 5 3 4 8 11 10 15 21 20 20 18 16 15
10 10 8 6 6 7 8 9 10 12 13 14 15 15 15 15 14 13 11 8 7 5 4 5 5 4 3 2 1 2 1 0 5 6 5 3 6 8 10 11 12 15 16 13 10 9 9 10 9 6 5 3 1 2 2 2 4 3 3 5 4 3 3 4 4 2 7 11 12 12 9 11 10 7 8 4 6 5 8 11 12 16 19 19 19 17 15 14
11 10 7 5 6 7 8 8 10 11 12 14 14 15 15 14 13 12 11 9 8 6 6 5 4 4 2 2 3 4 3 5 6 6 8 7 6 9 11 12 12 14 13 11 11 11 11 11 9 6 5 4 1 2 2 2 4 4 1 3 3 3 3 4 3 2 6 10 11 10 9 11 10 8 8 5 7 8 10 12 14 17 18 18 17 16 15 14
10 9 7 5 6 7 7 8 10 12 13 14 15 15 15 14 12 10 9 9 8 7 7 5 4 4 2 3 4 5 6 7 6 7 10 10 8 8 10 12 12 13 11 11 11 11 11 11 9 5 4 2 2 3 2 3 3 3 2 2 1 2 4 5 4 3 6 8 9 9 9 9 8 9 8 7 9 11 12 13 16 17 17 16 16 16 14 13
10 9 7 6 6 7 7 9 11 13 14 15 16 16 14 12 10 9 9 8 8 8 7 6 5 3 2 4 5 4 6 7 6 8 9 10 9 7 8 9 10 10 9 9 10 10 10 9 8 5 4 3 4 3 2 4 1 2 2 2 2 3 5 8 7 5 5 7 8 10 9 8 8 9 8 8 9 12 13 14 16 18 17 15 15 15 14 12
9 8 7 7 7 7 8 9 11 13 15 16 16 15 14 11 9 9 9 8 7 8 7 5 5 4 4 6 6 3 7 7 6 6 8 9 8 7 6 6 7 8 8 8 9 10 8 5 5 4 5 4 4 2 1 3 1 1 1 2 2 1 5 9 11 6 5 6 7 9 8 9 9 6 5 9 10 13 14 14 16 17 16 15 14 14 12 12
8 8 7 7 7 8 9 10 12 14 15 16 15 15 13 10 9 9 10 9 7 6 6 4 4 4 7 5 3 3 10 7 6 5 6 8 6 6 6 5 6 8 7 7 8 9 6 3 2 4 3 2 2 0 0 2 2 0 3 3 3 3 2 10 14 7 5 5 4 7 8 9 8 4 5 12 12 13 14 14 16 16 15 14 13 13 11 11
8 8 7 7 8 8 9 11 12 14 15 16 15 15 13 10 9 9 10 11 8 5 5 3 3 6 9 4 2 7 10 6 7 5 5 7 5 5 7 8 7 8 7 7 7 8 7 3 3 5 3 4 4 1 1 1 1 2 4 2 5 6 3 12 15 6 3 4 3 7 8 8 8 5 8 14 13 13 13 13 16 16 14 13 13 12 11 10
8 8 8 8 8 9 10 12 14 15 15 16 15 15 13 11 10 9 10 11 8 6 6 5 6 9 8 4 7 10 8 6 6 5 5 5 4 2 7 10 10 8 7 7 6 7 8 5 4 5 5 6 4 1 2 3 3 4 4 3 5 6 3 11 14 6 4 4 3 4 6 7 7 6 10 13 14 15 13 13 15 15 14 14 13 12 11 10
8 8 8 8 8 9 10 12 14 14 14 15 15 14 12 10 9 8 11 10 7 8 8 7 9 10 6 6 8 7 6 6 5 3 3 4 4 2 5 10 11 10 10 7 4 7 9 6 5 5 5 5 2 3 5 4 4 3 1 3 4 4 2 8 11 9 8 5 2 3 3 6 7 8 12 13 14 15 14 14 14 14 14 14 13 12 11 11
7 7 7 7 7 8 10 12 12 12 14 15 15 13 10 9 7 7 11 9 7 9 9 8 10 8 6 8 6 3 5 5 4 2 3 5 4 1 5 10 11 12 12 8 5 7 9 7 6 6 3 2 3 6 5 3 5 3 2 3 3 4 2 6 9 9 8 6 4 4 2 5 7 10 12 13 14 13 13 13 14 14 14 14 14 12 11 12
6 5 5 6 6 7 9 11 11 12 13 15 15 12 10 8 4 6 11 9 6 9 9 8 9 5 3 7 6 3 5 3 2 2 3 7 3 2 7 9 10 12 12 9 8 7 8 8 6 5 3 4 5 6 4 3 4 4 2 2 2 5 4 5 7 5 5 7 6 4 2 3 5 10 12 12 13 13 12 13 13 14 14 14 13 12 12 12
4 4 4 4 5 7 10 11 11 11 13 16 16 12 9 5 1 6 11 8 6 8 9 8 8 5 4 6 5 3 4 1 2 4 6 8 6 5 8 9 9 11 11 8 9 8 7 8 5 4 5 5 5 4 3 3 1 1 2 1 1 4 7 7 6 5 5 6 6 3 1 1 3 9 13 12 14 13 12 13 13 13 13 13 13 13 12 13
3 3 3 4 6 7 10 11 10 11 13 16 16 12 9 5 1 6 11 8 5 3 5 7 4 3 6 5 2 3 2 2 4 6 8 9 8 7 6 7 9 11 11 8 9 8 8 8 5 5 5 4 5 4 2 1 3 3 2 1 2 3 6 7 7 8 8 6 6 5 2 1 3 8 12 12 14 14 12 12 13 13 13 13 13 13 13 13
3 3 4 5 6 8 10 10 10 10 12 14 16 13 10 7 1 5 13 9 5 2 2 5 2 1 6 5 3 3 3 5 7 7 9 9 8 7 5 7 10 11 10 9 9 10 9 7 5 5 5 5 4 4 1 3 4 3 2 2 1 4 4 5 7 8 9 6 5 6 3 2 4 7 10 12 14 13 11 11 12 12 12 13 13 13 13 13
3 4 5 6 7 8 9 10 9 10 11 12 16 12 9 10 1 4 11 7 3 4 3 4 3 2 4 4 3 3 4 6 7 7 8 8 7 7 6 7 10 10 9 8 9 9 8 7 7 6 3 3 3 1 4 5 4 1 1 1 3 5 3 4 7 7 8 5 4 5 4 4 4 5 9 12 13 12 12 12 13 13 13 13 14 13 14 14
5 6 7 7 7 8 8 9 9 9 10 10 13 11 8 11 5 4 8 3 3 5 2 2 1 1 2 2 2 3 4 5 8 8 7 7 7 8 7 7 9 8 7 6 7 7 6 7 6 4 1 2 2 1 3 3 2 2 1 2 2 5 5 5 7 7 6 4 3 4 4 6 6 5 8 11 12 13 14 14 14 15 14 13 13 14 15 14
5 6 8 8 8 8 8 9 9 8 9 10 10 8 7 9 7 5 6 2 2 4 3 3 2 2 1 1 1 2 3 5 8 8 7 8 8 6 6 7 8 6 6 6 5 6 7 8 4 3 2 2 3 3 3 4 3 4 2 2 1 3 5 5 8 9 6 2 3 5 5 5 6 6 8 11 12 13 14 14 13 15 14 13 13 14 16 15
6 7 8 9 9 9 9 9 8 7 9 9 5 6 8 9 9 7 4 3 0 3 3 2 1 2 1 1 1 0 2 3 6 8 8 8 6 4 5 7 6 4 7 9 8 6 7 5 4 4 2 4 5 5 4 5 4 4 2 1 2 3 3 4 6 9 6 3 4 6 4 4 6 6 7 10 12 12 13 14 12 13 14 13 14 15 16 16
6 7 8 9 9 9 9 8 7 6 9 7 3 6 10 11 11 8 3 4 1 3 1 1 1 1 1 1 1 1 1 1 3 7 9 8 5 4 4 4 4 5 7 10 10 8 4 3 4 4 4 5 6 6 5 6 5 3 2 1 2 3 2 4 4 6 5 4 6 6 2 4 7 8 7 9 11 12 13 15 14 14 15 14 14 15 16 16
6 7 7 8 9 9 9 7 6 7 8 5 5 11 13 13 12 7 3 5 2 3 1 2 1 1 1 2 2 1 2 4 2 5 9 7 4 3 3 3 5 6 6 7 8 8 3 5 3 6 6 6 7 7 5 5 5 2 1 5 5 5 2 6 7 6 4 4 7 8 3 4 7 9 9 8 10 12 13 16 16 16 16 15 15 16 17 16
6 6 7 8 8 9 7 5 4 8 6 3 8 14 15 15 12 5 4 4 4 3 0 2 1 2 2 1 2 4 5 5 3 5 9 7 4 3 3 5 4 4 3 5 6 6 2 5 4 5 6 7 8 7 4 3 5 1 3 10 9 7 3 5 8 7 3 2 6 7 5 2 3 8 10 10 11 13 13 15 17 18 17 17 17 17 17 17
6 6 7 8 8 7 5 4 5 8 5 4 12 15 16 15 8 3 5 3 5 3 1 2 2 2 2 1 3 5 2 6 6 7 8 8 6 5 5 4 3 3 3 4 5 3 4 6 5 6 7 7 8 6 4 3 3 2 2 11 10 7 3 4 7 5 1 2 3 6 6 3 2 6 11 13 12 12 13 13 15 18 19 19 19 19 19 19
6 6 7 7 8 7 5 6 6 6 5 8 13 15 17 12 2 2 6 0 5 2 1 3 1 0 1 1 3 3 2 3 4 7 8 9 7 6 6 2 2 2 6 7 4 4 6 10 9 10 8 7 8 3 6 4 2 3 2 7 9 8 3 3 5 4 1 2 3 5 6 5 2 5 10 13 12 12 14 14 15 19 21 20 21 21 20 20
7 6 7 8 8 6 6 7 5 4 7 10 13 15 15 6 2 4 5 2 3 1 1 1 1 2 3 3 4 4 2 2 1 5 8 9 7 6 5 0 1 2 6 9 6 3 3 5 7 10 10 8 7 2 4 5 3 7 6 1 5 6 1 2 5 3 2 4 4 7 9 5 2 6 7 9 10 11 12 12 14 19 22 21 21 21 21 21
8 6 7 8 8 7 6 6 5 5 7 10 13 15 10 1 3 6 2 3 1 1 2 1 1 2 4 5 6 6 5 3 2 5 8 7 7 7 4 1 4 4 5 7 8 2 4 3 2 8 9 6 2 4 3 3 7 10 6 2 5 4 1 2 3 2 4 5 3 8 9 6 1 4 5 6 6 7 8 9 12 17 21 22 22 22 22 22
10 6 7 8 8 7 5 4 5 6 7 10 14 12 4 3 5 4 3 3 1 1 1 1 1 0 4 4 3 5 4 4 4 6 7 5 7 7 5 4 5 6 5 6 7 6 8 7 5 7 9 5 4 5 5 7 10 8 4 1 3 3 3 3 3 3 6 4 3 6 8 6 3 2 5 5 4 4 5 7 11 16 21 24 24 23 23 23
10 7 8 9 9 8 6 5 6 7 7 10 12 7 4 4 4 1 3 1 2 1 1 1 2 2 2 4 3 3 2 3 5 5 4 3 5 5 4 4 2 4 5 4 5 6 9 10 9 8 9 10 9 6 6 6 7 6 5 4 1 4 5 5 5 5 4 2 3 4 6 4 2 2 4 3 1 0 2 4 8 14 20 25 26 25 24 23
10 7 8 9 10 9 8 7 6 6 6 10 9 5 6 5 1 2 2 1 1 4 3 3 3 3 2 4 3 3 2 2 4 4 2 2 3 3 3 3 4 5 3 1 2 4 6 9 11 9 8 13 12 6 7 6 6 7 7 6 2 5 4 4 5 4 3 4 5 5 5 3 2 4 5 3 3 3 3 3 7 11 16 21 25 26 25 24
9 7 7 9 10 10 8 7 6 6 6 9 7 6 6 4 1 1 1 0 3 2 2 3 3 1 3 2 3 3 3 3 3 4 4 5 5 4 4 4 5 6 5 3 3 4 4 5 11 10 7 14 15 9 8 7 7 8 8 7 6 6 2 2 3 2 2 4 8 6 4 2 2 5 5 4 4 5 5 4 4 8 13 15 19 24 25 26
8 5 7 8 10 10 10 8 6 5 6 7 7 5 5 3 1 1 1 2 2 3 2 2 4 3 5 3 2 2 3 1 4 5 4 4 2 1 1 3 4 5 6 4 1 3 7 0 8 8 4 12 16 12 10 9 7 7 8 8 8 7 4 4 4 3 5 4 5 6 4 2 4 5 5 3 4 6 7 7 4 4 10 11 14 19 22 25
6 3 5 7 9 10 10 8 7 4 5 7 7 4 2 1 1 0 2 3 3 5 5 4 4 4 4 5 4 4 2 1 5 6 3 2 1 2 1 3 1 3 4 3 1 2 6 0 6 5 6 11 12 10 11 10 5 6 7 8 7 4 6 6 5 2 5 7 4 6 5 4 5 5 3 2 3 6 8 8 7 3 8 10 12 15 18 21
4 2 3 6 9 11 10 9 6 4 4 7 5 2 0 2 2 1 2 4 4 5 7 4 1 2 2 3 4 6 5 4 5 5 3 4 2 3 2 1 1 3 4 4 1 2 4 2 4 2 7 9 6 7 10 8 4 5 7 8 7 3 6 5 5 3 3 6 4 4 5 5 5 3 1 3 5 8 9 9 7 4 7 11 12 13 15 17
4 4 4 6 9 10 10 9 6 4 5 6 3 0 1 2 2 1 2 4 4 4 6 3 1 2 2 2 3 5 5 5 5 5 3 4 2 2 1 1 2 1 4 5 3 2 4 4 3 1 4 7 6 6 7 7 8 6 3 6 7 5 6 6 4 4 4 5 3 4 5 4 2 2 2 4 8 9 10 8 6 5 5 9 11 12 13 14
3 5 6 6 8 10 10 9 6 6 6 6 4 3 2 2 2 1 3 3 4 5 4 2 1 1 1 2 0 4 5 4 4 4 3 3 2 2 1 1 1 1 2 5 4 1 4 3 1 1 1 6 8 7 6 7 9 6 2 7 7 4 4 4 3 3 4 5 4 4 5 2 4 4 5 6 7 8 8 8 6 5 3 6 9 11 12 13
2 5 5 6 8 10 10 9 7 7 6 4 3 2 2 2 3 2 3 3 4 3 2 2 1 1 0 1 1 2 3 4 4 4 2 2 2 3 1 1 1 1 1 4 4 2 2 3 2 1 3 5 7 5 4 5 8 7 5 8 7 4 3 3 5 5 5 4 4 5 4 3 4 4 5 6 6 7 8 7 5 5 4 4 6 8 11 12
4 6 4 6 8 10 10 8 8 7 5 3 3 2 3 2 2 2 2 4 4 2 3 3 3 2 1 2 1 2 3 4 4 4 3 4 3 1 2 1 3 3 3 5 3 1 2 4 3 0 3 4 3 2 4 4 7 8 7 7 7 6 5 5 7 7 6 6 5 5 3 3 4 3 4 5 5 6 7 7 6 6 6 5 5 5 8 10
4 4 3 5 7 10 10 7 6 5 5 3 2 3 3 1 3 3 3 5 4 3 3 3 3 2 2 1 0 1 3 2 3 4 3 2 2 1 3 2 4 6 5 4 2 2 2 3 2 2 3 0 3 2 3 4 6 5 3 4 6 7 7 7 6 5 6 6 5 6 4 2 4 3 3 4 6 7 7 6 5 6 7 6 6 4 4 7
4 5 1 4 6 10 9 7 5 5 6 3 1 2 4 3 4 4 3 6 5 4 5 4 3 2 1 1 1 3 3 1 1 2 1 2 2 3 3 3 4 5 5 3 1 1 1 4 3 2 1 2 3 3 3 3 6 4 2 4 5 6 6 6 3 2 6 5 5 6 5 2 3 2 2 4 6 6 6 6 6 6 8 7 7 6 4 5
8 7 3 4 5 9 8 6 6 7 6 4 3 6 6 5 6 6 5 7 5 5 6 5 3 2 0 0 2 3 2 2 2 2 1 2 3 4 4 2 3 4 2 3 2 1 2 3 3 3 2 3 4 5 4 4 5 4 2 3 3 5 6 6 2 2 6 5 3 6 3 2 2 1 1 4 6 7 7 7 7 9 10 10 9 8 6 4
7 5 5 5 4 7 7 5 4 6 6 6 7 7 6 5 6 7 7 6 5 5 5 3 3 3 2 2 3 3 3 4 2 2 2 2 4 3 3 2 3 2 2 3 3 3 3 2 2 4 4 5 5 2 2 2 1 2 1 2 2 5 8 7 5 6 7 4 3 4 0 4 4 3 3 5 6 7 8 9 11 12 12 11 10 9 8 7
6 3 4 5 6 8 7 5 6 6 4 5 6 6 7 7 5 6 7 6 6 6 4 2 3 4 4 5 5 5 5 4 2 3 4 4 4 3 2 1 2 2 3 1 2 4 4 1 1 4 3 3 5 4 2 2 2 2 1 2 2 2 5 7 7 7 4 2 3 1 6 8 7 5 4 5 6 7 9 11 11 11 10 10 11 10 10 8
4 2 1 1 4 7 7 5 7 6 2 3 4 3 6 7 5 6 7 5 5 7 5 3 5 6 6 6 6 4 5 4 4 4 4 3 2 3 3 2 3 4 3 2 3 4 4 2 1 1 1 3 7 8 6 6 5 2 2 4 5 3 2 6 6 3 1 3 4 3 8 9 7 5 4 6 7 7 10 11 10 9 7 9 11 11 12 11
3 2 2 3 3 4 3 2 3 4 3 4 3 2 5 8 7 7 7 5 5 7 6 5 7 8 6 5 6 4 5 5 5 5 4 3 4 4 5 5 4 5 5 4 1 3 4 2 1 3 4 6 8 9 6 6 7 5 5 6 7 7 4 1 1 2 2 3 2 4 6 8 8 6 5 8 7 8 11 12 12 11 10 10 11 12 13 13
4 3 1 2 4 5 5 5 5 6 6 4 3 5 6 7 8 7 5 5 7 8 8 6 7 8 7 6 6 4 5 5 3 4 4 4 4 4 4 4 4 5 6 3 2 2 3 1 1 2 5 6 5 4 4 4 5 6 6 6 7 8 7 5 4 3 1 2 5 8 8 9 8 6 7 8 8 10 12 13 14 14 13 12 12 13 13 13
4 3 3 5 7 7 7 7 6 6 5 3 4 6 6 7 7 5 5 7 8 9 9 9 7 6 6 6 7 6 5 4 3 3 6 6 4 5 5 3 2 4 5 3 2 2 3 1 1 3 4 4 2 1 2 3 3 5 5 5 5 5 6 6 5 4 2 4 7 9 9 8 6 7 8 7 8 11 12 14 15 14 13 14 14 14 14 14
3 3 4 6 5 3 4 5 5 5 5 5 5 4 5 6 5 3 5 10 10 7 8 10 9 5 5 7 8 7 4 4 4 2 5 6 4 4 4 2 3 5 5 3 3 3 3 2 3 4 4 4 4 2 1 1 3 2 3 4 4 3 3 5 4 3 1 3 7 8 6 6 6 7 7 8 9 10 11 13 14 13 13 13 14 15 15 15
3 3 2 4 3 2 3 4 4 5 4 2 1 1 3 3 2 2 5 9 11 9 6 9 8 5 7 9 8 5 3 3 1 2 3 3 3 3 3 2 2 4 3 3 3 2 3 3 4 5 5 4 6 5 3 4 6 4 2 2 3 3 3 3 3 2 2 1 3 4 4 7 8 7 6 9 10 11 11 11 10 11 12 12 14 15 15 15
Wind_Direction
24 19 15 17 26 33 31 27 26 26 27 27 26 24 23 23 20 8 339 299 283 292 301 305 301 300 304 307 312 317 326 330 330 326 303 268 246 233 222 214 203 189 183 176 183 185 174 173 178 187 186 205 234 285 324 336 313 282 247 226 160 161 149 133 154 117 119 137 144 153 160 144 139 141 134 134 129 127 122 114 107 102 109 118 125 135 141 146
22 19 17 23 35 36 29 27 28 29 32 32 31 31 31 32 34 35 31 13 327 307 308 314 313 310 308 307 313 322 338 354 22 11 316 262 241 227 214 205 194 184 180 179 181 177 174 178 178 183 193 213 200 299 317 325 307 316 289 251 109 106 102 80 91 83 126 144 147 160 165 152 144 146 150 146 137 140 131 125 119 113 118 122 128 136 141 146
20 18 18 30 43 37 30 30 31 33 36 36 34 34 33 33 35 39 40 35 13 337 324 323 322 322 317 313 313 329 3 78 95 40 328 264 233 217 205 197 185 178 178 178 180 181 184 181 178 185 207 228 184 278 307 322 311 1 307 277 70 82 105 90 89 71 116 143 148 162 163 156 149 150 156 145 140 148 140 137 135 130 133 133 135 141 145 149
20 17 18 35 46 37 35 33 33 36 36 35 34 32 32 31 30 32 35 34 22 355 339 333 333 331 326 324 314 356 29 152 128 22 330 279 217 204 194 189 178 174 176 178 180 186 189 180 182 196 225 234 189 252 289 354 325 334 321 20 70 126 134 99 92 83 129 152 153 157 159 158 157 156 155 149 145 149 147 146 144 144 144 141 143 146 148 151
18 16 19 38 43 39 41 37 35 33 31 30 27 27 26 25 23 23 24 24 17 6 354 345 345 340 336 332 316 53 263 195 106 22 353 17 179 183 184 181 170 170 177 182 182 187 186 177 185 206 233 240 210 247 39 32 315 309 22 51 63 175 147 106 98 100 149 156 152 159 163 155 156 161 156 141 101 119 143 144 141 148 148 145 146 148 150 152
15 14 20 41 42 41 44 39 33 26 24 22 19 18 16 14 13 12 14 13 9 6 3 359 358 354 349 348 68 112 280 31 65 34 34 88 159 164 175 173 164 168 176 183 183 187 184 182 195 207 228 242 255 294 12 16 282 279 92 82 68 72 111 122 112 113 158 159 159 165 158 152 158 156 153 96 49 97 131 135 139 146 148 145 146 148 151 152
13 15 24 43 41 43 44 36 29 22 20 16 13 10 7 6 2 2 6 8 10 9 12 11 10 10 9 67 93 120 87 53 58 49 59 81 129 149 165 165 161 164 171 181 184 188 185 190 203 219 247 245 294 330 331 276 254 275 20 87 85 95 124 139 118 116 163 163 162 163 153 159 165 151 146 88 71 118 128 131 138 143 147 145 147 149 150 150
14 18 30 44 42 42 39 32 26 21 17 13 10 7 4 4 2 5 9 15 19 18 26 23 22 32 57 105 122 136 95 64 66 66 70 78 92 124 156 161 162 160 167 184 186 193 191 198 211 226 259 280 339 326 304 251 221 260 297 76 124 166 164 159 128 116 147 152 153 159 158 159 160 147 138 98 98 124 129 133 139 144 149 148 149 149 149 150
18 25 35 42 41 38 34 28 22 18 15 10 8 8 8 8 10 13 14 22 23 22 32 28 41 53 67 118 172 165 91 81 82 76 76 79 87 111 146 168 176 167 174 188 191 200 198 207 214 232 293 327 316 318 303 263 210 278 313 32 257 219 199 180 139 114 130 140 151 157 155 144 149 149 131 111 118 128 131 138 142 148 152 152 151 150 150 151
25 32 36 40 39 37 33 24 19 15 10 7 8 10 11 12 16 18 18 18 17 21 24 24 53 62 88 132 194 182 105 105 88 76 77 81 94 113 134 168 185 179 183 194 199 203 207 228 220 240 288 294 296 335 336 289 10 321 344 45 303 247 208 175 137 117 97 120 162 164 155 142 151 170 142 134 136 134 136 142 147 151 154 156 154 152 154 152
32 36 37 42 42 38 30 21 16 11 7 6 6 8 9 12 13 16 18 13 12 17 15 26 60 80 111 141 240 132 118 106 77 83 84 82 97 125 151 162 171 183 190 201 205 206 213 250 231 234 269 296 283 334 14 314 17 190 144 97 70 76 174 152 136 138 116 117 164 152 145 145 161 191 141 144 147 141 141 146 153 154 154 157 156 154 156 154
38 41 42 44 43 36 26 18 12 7 6 5 3 2 2 6 3 1 5 6 11 18 19 34 71 105 122 123 34 108 121 90 73 88 80 77 88 138 170 165 169 190 196 209 212 209 216 209 217 247 305 321 284 218 114 176 134 185 180 142 100 88 107 137 139 157 143 135 139 143 152 158 175 170 134 147 151 147 144 148 157 157 156 159 158 156 157 157
43 46 47 46 41 32 23 15 8 5 4 359 358 356 355 1 358 354 359 3 19 35 41 57 94 116 124 114 102 111 103 71 77 83 67 66 55 111 179 171 172 188 192 206 217 207 209 198 221 273 307 292 288 89 130 153 175 201 207 215 128 104 88 130 140 158 148 140 136 171 176 162 175 159 144 157 157 155 152 152 159 162 160 160 161 160 159 160
44 47 46 43 36 30 21 12 5 1 356 351 352 351 352 358 356 358 3 9 37 44 49 72 106 115 99 99 119 113 76 59 67 65 57 65 47 43 182 172 170 180 179 181 202 197 195 194 228 269 277 278 310 147 179 177 198 194 102 261 187 129 91 128 148 166 154 153 190 213 180 155 173 159 153 166 166 164 161 157 162 166 164 162 163 164 163 162
42 44 41 37 31 25 16 8 2 356 351 350 351 348 348 354 356 1 6 21 51 45 54 84 109 120 107 103 112 92 68 55 58 74 79 92 72 51 168 171 169 172 170 166 172 181 184 192 229 257 249 238 216 197 202 194 202 184 80 262 201 128 111 134 157 177 160 160 201 220 187 140 158 156 157 171 175 175 169 162 164 168 167 164 164 168 166 163
39 36 32 28 22 17 11 7 2 358 356 357 355 348 345 351 2 4 7 26 56 50 59 88 106 114 113 107 107 92 81 64 108 149 126 117 117 135 149 157 160 161 161 160 156 158 178 196 233 268 247 206 216 223 236 225 196 191 213 246 151 134 147 144 155 175 156 158 183 218 225 118 135 152 160 172 179 183 178 168 168 169 170 168 167 170 169 163
30 22 13 7 6 7 6 7 5 3 3 3 2 358 355 359 53 13 10 22 42 56 63 77 104 99 78 106 122 101 79 58 169 168 151 132 129 128 129 136 148 153 150 149 151 155 179 201 227 243 227 222 239 251 260 273 276 202 223 134 130 159 151 152 164 170 166 173 180 185 198 83 121 152 163 174 182 187 184 174 173 171 171 172 171 173 171 168
12 357 345 348 354 358 5 8 4 4 5 6 6 7 13 20 60 15 14 20 18 46 78 72 111 124 97 116 108 67 66 107 128 148 154 140 129 130 131 138 147 150 150 155 162 173 187 203 227 234 219 214 238 236 193 309 314 296 302 80 184 165 129 141 154 166 174 178 176 169 159 124 143 157 168 177 183 190 188 177 177 175 174 177 177 177 174 172
340 327 325 333 340 351 3 4 359 1 2 5 9 13 23 17 337 30 20 20 10 330 76 49 350 11 84 100 60 60 96 112 117 131 146 143 135 140 142 148 155 162 169 171 173 186 196 200 219 234 223 207 229 254 291 335 323 305 324 8 106 100 100 137 139 153 165 162 169 168 170 196 176 168 173 179 186 193 189 180 181 179 178 182 183 181 178 177
299 297 306 316 329 341 354 358 355 356 356 6 13 16 18 2 335 62 17 9 16 359 4 7 346 21 69 92 69 82 113 121 124 132 147 147 142 152 153 158 172 188 198 185 171 184 202 213 219 223 227 221 220 300 329 325 337 343 119 69 96 113 120 151 135 143 153 150 167 161 170 205 201 185 178 177 186 196 192 185 185 183 184 188 187 182 179 181
280 283 293 303 317 327 341 352 350 353 356 4 16 23 21 4 2 17 353 349 43 12 8 5 360 41 47 106 94 95 125 137 134 146 159 151 168 178 165 178 193 198 201 188 165 166 205 232 221 208 247 273 215 159 322 322 342 320 174 141 136 130 128 134 134 144 154 140 145 158 185 209 210 202 186 179 187 199 197 191 188 186 189 190 189 185 180 180
275 275 284 294 302 314 329 343 343 351 356 359 18 32 28 9 2 350 328 302 48 21 45 54 55 69 71 142 98 91 160 161 145 156 165 160 194 206 167 196 215 189 173 190 185 170 211 235 202 168 231 251 222 225 283 307 313 295 231 145 63 94 112 134 142 146 160 146 147 175 193 212 214 205 195 193 195 201 200 199 195 189 191 192 190 186 181 178
275 270 279 287 292 304 317 333 341 345 349 358 27 22 8 2 357 359 328 277 105 60 44 47 68 72 95 127 46 8 203 188 156 157 169 175 194 214 189 206 221 184 176 199 211 204 216 221 156 148 202 229 224 222 252 279 269 265 288 89 142 178 148 150 159 150 156 157 155 177 190 212 213 200 202 209 207 204 203 206 206 200 197 196 193 188 183 181
277 270 274 281 287 299 311 328 337 341 350 2 22 350 354 359 354 360 313 264 162 101 49 65 92 68 108 159 193 240 153 164 165 155 173 191 183 188 211 208 216 204 195 207 221 233 228 93 104 167 197 227 235 224 226 254 247 208 279 321 170 210 129 115 175 160 143 153 155 160 191 233 213 200 200 207 211 208 203 205 207 208 204 201 198 191 187 186
275 269 270 275 284 293 311 328 332 345 356 4 353 342 347 353 348 345 277 245 139 99 112 128 117 91 120 201 178 212 172 151 150 152 170 199 196 182 182 190 234 220 190 200 223 242 225 105 146 203 200 218 241 240 219 243 258 168 53 349 345 312 17 122 180 188 172 186 165 158 188 231 206 203 198 191 205 208 202 204 205 205 204 203 204 197 193 193
277 269 266 270 279 287 314 333 319 339 353 341 337 337 341 343 335 328 273 225 110 63 39 139 144 118 124 188 152 213 208 145 132 172 179 196 205 234 202 172 230 249 175 191 225 248 213 138 182 219 218 219 236 248 213 225 258 178 8 345 337 302 285 151 189 210 211 164 157 175 207 228 203 216 205 187 201 206 200 206 208 205 203 203 206 202 199 198
283 265 260 267 272 277 300 298 304 336 343 321 331 335 339 335 327 311 259 210 94 34 311 100 75 91 110 151 194 230 192 111 149 180 187 197 189 236 247 178 205 227 161 202 226 221 202 188 190 220 233 227 234 239 179 195 262 176 325 336 333 302 269 197 214 228 205 125 163 209 228 244 237 221 202 189 198 205 203 210 213 210 207 204 205 205 202 201
288 258 253 260 264 268 276 282 308 331 315 321 332 335 337 333 331 230 258 189 72 333 298 84 41 95 152 224 233 246 61 104 185 161 175 206 198 232 255 218 242 170 160 217 225 133 192 216 207 216 229 229 239 228 130 165 222 122 76 354 331 305 277 221 242 251 210 200 209 193 208 236 195 178 186 186 194 203 203 207 211 212 211 206 205 205 205 203
289 256 245 249 258 263 265 282 303 299 305 326 332 335 337 341 159 238 255 63 60 266 69 84 230 163 195 223 214 219 205 228 268 122 171 205 204 237 273 258 240 163 167 229 258 100 161 227 223 222 230 237 242 180 147 212 186 123 118 98 282 284 300 236 256 269 243 250 236 173 190 236 158 153 176 183 197 208 208 209 207 209 212 210 205 204 204 202
290 257 237 240 249 251 262 284 288 293 314 325 331 337 338 322 222 249 213 70 23 143 95 254 245 143 219 226 189 191 210 205 113 134 174 197 200 222 273 276 230 226 187 220 256 258 142 153 230 230 236 250 228 126 148 186 130 122 127 215 256 252 232 245 249 282 251 238 205 161 188 237 229 139 156 173 198 206 204 210 208 208 213 214 210 205 204 201
290 263 232 231 238 241 257 272 269 296 318 324 335 338 320 211 249 268 91 66 301 158 170 217 68 172 244 260 203 169 190 181 157 178 182 180 196 203 213 213 216 229 215 206 227 221 189 191 206 217 225 216 151 132 124 134 136 127 113 51 280 237 206 217 190 225 246 216 110 138 183 227 252 104 128 161 181 178 187 200 202 206 211 213 212 207 204 203
288 270 231 224 229 232 237 241 264 297 315 329 334 317 252 233 243 325 73 178 242 24 10 33 19 331 258 258 241 159 186 168 163 205 214 196 202 193 208 228 220 226 226 200 194 196 197 204 201 196 202 197 186 166 138 149 157 142 126 120 289 247 211 207 195 202 228 175 108 142 172 215 248 99 105 138 139 158 234 225 210 209 210 210 211 208 204 203
287 271 234 219 221 225 232 240 264 289 314 332 324 263 247 263 241 47 37 219 31 29 353 324 333 327 246 219 178 147 201 150 152 197 216 238 231 192 205 258 290 279 273 254 226 208 190 190 191 184 181 197 207 194 163 167 174 170 153 139 204 252 230 226 222 209 204 162 132 146 173 216 211 112 86 71 57 25 348 296 244 222 212 209 209 209 205 203
288 269 234 215 215 219 224 236 256 282 320 326 297 240 247 267 108 72 258 39 23 354 309 306 305 226 202 208 134 159 211 143 150 195 185 205 222 196 186 199 236 265 273 259 265 254 238 186 181 182 169 186 205 223 201 178 179 182 158 153 210 258 274 267 261 250 238 161 132 148 193 215 157 118 90 72 62 40 19 349 280 229 213 210 209 208 205 202
291 262 230 209 209 214 215 227 245 272 316 307 270 244 254 259 142 195 245 28 346 316 309 282 275 220 171 150 141 204 265 138 166 200 200 207 206 149 149 144 190 239 259 258 307 273 270 265 149 172 167 183 202 221 207 187 185 179 167 177 213 251 270 285 300 315 292 264 149 169 213 79 111 136 110 64 50 42 27 18 15 205 201 204 211 208 203 201
294 258 228 208 203 208 208 218 236 261 305 286 256 245 258 348 32 153 21 350 314 320 304 238 239 243 174 153 158 174 235 196 181 195 184 184 111 91 81 64 111 243 271 283 335 285 264 166 120 171 197 195 213 220 203 202 185 156 188 198 184 230 277 292 290 269 275 267 187 172 196 131 132 160 129 37 30 42 26 22 37 126 183 191 204 207 202 200
285 241 226 213 206 203 200 208 227 249 278 268 258 277 317 79 37 41 23 324 300 307 291 252 184 293 223 173 158 158 185 182 190 207 172 173 159 103 151 89 58 287 312 297 279 24 299 244 121 190 203 186 209 218 202 208 196 168 201 196 160 200 273 278 270 262 260 248 193 173 201 167 152 172 133 19 21 28 19 21 38 81 166 185 194 200 201 200
275 224 196 209 208 197 194 198 210 231 253 257 244 184 236 157 113 353 333 311 295 272 272 285 48 325 289 229 144 143 189 187 181 204 181 184 177 86 205 158 98 308 313 283 250 43 320 260 138 130 196 161 165 202 193 190 210 216 196 174 169 201 228 225 250 270 263 255 226 192 204 183 114 95 71 21 17 16 11 13 24 63 141 177 185 190 197 200
273 210 185 204 208 191 188 186 191 223 240 244 215 168 202 183 144 246 279 284 281 267 270 329 15 283 300 308 63 147 209 223 180 191 198 197 159 94 299 303 91 55 327 285 270 347 324 290 166 103 151 162 175 198 197 181 202 226 191 180 192 205 213 220 239 254 265 276 272 216 193 140 45 45 44 25 18 12 7 6 13 46 104 165 173 180 186 191
235 216 186 194 206 187 178 176 190 222 229 236 245 157 158 207 188 212 261 259 262 277 304 345 296 257 153 286 279 162 216 243 214 211 208 180 155 125 115 312 299 340 332 272 273 290 294 287 266 132 134 185 191 195 221 194 190 208 198 185 192 183 178 218 230 230 238 251 262 243 203 104 55 36 30 19 11 12 12 2 8 45 73 129 151 171 178 186
218 229 174 178 203 180 171 187 202 222 226 218 240 187 168 240 236 199 208 234 249 271 311 314 302 313 328 245 234 153 206 221 212 223 207 187 210 178 102 13 297 291 272 248 249 285 276 283 296 223 185 203 186 196 269 223 193 213 215 197 198 194 188 209 223 227 230 230 251 258 223 105 66 26 20 17 9 21 24 3 6 48 63 85 116 149 172 186
224 243 152 172 195 169 177 213 203 211 235 216 196 190 178 233 247 225 199 208 225 227 237 269 280 291 302 289 334 185 218 210 199 225 223 195 226 46 69 12 295 277 278 276 297 36 321 283 276 255 255 18 87 136 245 209 192 219 219 187 209 214 207 210 216 240 247 226 231 254 239 116 59 19 11 22 24 29 33 18 20 55 63 68 86 102 147 169
287 303 218 194 193 175 200 229 189 203 229 190 129 207 193 215 229 223 208 207 212 217 216 228 249 257 285 319 265 226 224 224 206 227 203 160 113 53 26 340 282 258 268 293 298 115 274 268 235 227 309 35 92 141 193 194 199 216 125 133 209 229 220 213 202 269 272 239 220 245 240 140 75 23 7 33 46 48 44 30 21 46 63 60 62 69 95 147
313 304 258 235 195 182 215 238 203 214 212 180 209 215 202 228 236 229 227 214 207 223 226 222 227 235 217 265 253 236 231 236 204 183 205 184 117 60 17 334 260 253 301 343 347 158 248 266 231 212 220 216 195 165 173 200 209 220 136 129 212 230 224 230 214 237 266 270 247 252 247 108 108 151 86 66 69 64 57 51 41 45 52 50 51 60 68 101
315 276 225 236 212 200 238 276 256 233 201 194 221 218 208 217 221 232 241 221 209 233 241 215 200 217 193 192 220 206 224 259 229 166 198 182 126 88 24 342 247 262 22 18 339 302 271 263 233 238 231 221 223 197 186 209 209 273 332 100 192 213 212 225 222 217 231 240 244 259 221 114 138 142 104 73 67 65 62 63 57 49 47 47 49 56 61 72
314 268 208 208 206 220 244 270 268 253 215 208 220 214 222 219 187 202 226 216 201 214 234 206 186 207 201 204 223 202 194 240 241 184 200 189 142 113 58 29 204 131 77 81 283 288 270 235 264 263 244 209 221 237 235 150 150 241 278 71 66 199 211 228 237 233 233 248 255 163 118 138 147 134 111 78 68 66 58 54 53 49 48 51 54 59 66 71
301 308 323 261 214 223 225 216 235 248 234 230 227 195 220 226 182 173 202 214 195 196 214 213 203 221 214 210 233 216 183 204 208 191 199 192 147 125 127 157 166 140 139 214 266 282 259 223 259 323 95 151 187 196 183 141 133 144 80 67 58 66 190 232 243 264 331 269 258 115 124 139 135 128 112 80 71 60 51 49 52 55 56 58 62 67 73 75
307 347 349 325 283 235 230 222 259 271 246 235 245 215 219 225 208 192 196 197 192 198 210 209 210 229 235 224 235 216 182 200 200 185 188 186 186 177 163 168 167 172 203 218 241 287 272 260 22 75 120 155 171 169 156 132 124 107 75 65 59 57 55 301 316 7 312 257 203 144 140 126 116 118 91 74 71 58 53 53 55 58 61 64 69 71 72 74
335 333 343 315 290 286 303 313 310 283 251 232 239 227 226 229 219 212 203 192 195 203 218 230 220 221 229 229 235 218 194 212 201 174 191 198 200 214 203 180 168 187 219 213 135 285 282 312 54 124 147 160 166 153 149 145 131 112 87 72 64 58 53 48 42 36 28 113 123 137 129 102 88 88 83 78 74 65 61 61 58 57 60 64 69 72 73 75
354 327 338 315 283 273 288 287 279 270 241 212 230 223 225 236 223 210 210 214 211 195 204 236 241 217 214 216 224 226 207 228 263 193 196 211 208 218 235 239 195 196 218 207 147 226 267 181 170 209 176 158 170 168 174 190 155 120 103 88 79 67 59 55 43 34 64 112 124 133 132 112 84 79 88 86 74 67 63 63 62 58 60 66 69 72 72 73
352 334 331 312 285 257 266 260 255 268 241 213 222 215 217 228 215 213 221 224 235 220 202 230 237 201 192 207 225 237 205 213 265 229 197 224 237 217 220 241 237 221 217 203 183 217 244 188 184 233 238 189 188 216 312 255 234 177 122 92 85 73 50 54 48 17 12 134 144 150 153 138 117 105 98 83 72 64 56 56 57 55 58 63 66 68 68 67
332 334 324 298 282 239 252 249 230 245 253 238 255 251 242 225 159 258 242 216 227 237 229 242 240 201 197 209 220 234 189 172 215 125 158 230 257 223 211 199 235 248 241 211 203 223 244 217 195 234 258 206 183 214 275 281 261 235 145 61 57 78 77 76 79 45 14 55 167 163 133 123 129 131 106 78 63 52 46 42 41 47 57 62 64 68 68 67
Height
1530 1529 1529 1528 1527 1527 1526 1526 1525 1524 1523 1522 1521 1520 1519 1518 1517 1517 1517 1517 1517 1517 1517 1517 1517 1517 1516 1517 1517 1517 1517 1517 1517 1517 1517 1517 1516 1517 1517 1518 1519 1521 1522 1523 1525 1526 1527 1528 1528 1528 1528 1528 1528 1527 1526 1526 1526 1523 1522 1520 1521 1525 1526 1524 1524 1524 1525 1529 1531 1533 1535 1536 1538 1540 1541 1541 1542 1542 1543 1544 1545 1546 1548 1549 1551 1553 1555 1557
1530 1530 1529 1528 1528 1527 1527 1526 1525 1524 1523 1522 1521 1520 1519 1518 1518 1517 1517 1517 1517 1517 1517 1517 1517 1517 1516 1516 1517 1517 1517 1517 1517 1517 1516 1516 1516 1516 1516 1518 1519 1521 1522 1524 1525 1526 1528 1528 1528 1528 1529 1528 1527 1527 1526 1526 1525 1523 1522 1520 1519 1523 1525 1524 1524 1524 1525 1529 1531 1533 1535 1536 1538 1539 1540 1541 1542 1542 1542 1544 1546 1547 1549 1551 1552 1554 1556 1557
1531 1530 1529 1529 1528 1528 1527 1527 1526 1525 1524 1523 1522 1521 1520 1519 1518 1518 1518 1517 1517 1517 1517 1517 1517 1516 1516 1516 1516 1516 1517 1517 1517 1517 1516 1516 1516 1515 1516 1518 1519 1521 1523 1525 1526 1528 1528 1529 1529 1529 1528 1526 1526 1527 1525 1525 1524 1522 1524 1523 1522 1523 1524 1526 1526 1526 1527 1529 1531 1533 1535 1536 1538 1539 1540 1540 1541 1542 1542 1544 1545 1547 1549 1552 1553 1555 1557 1558
1531 1530 1530 1529 1529 1528 1528 1527 1526 1526 1525 1524 1523 1522 1521 1520 1519 1518 1518 1517 1518 1517 1517 1517 1516 1516 1516 1516 1516 1516 1517 1516 1516 1517 1516 1515 1515 1515 1517 1518 1519 1521 1523 1525 1527 1528 1529 1529 1529 1529 1528 1526 1525 1526 1524 1525 1524 1522 1523 1524 1525 1525 1525 1528 1528 1528 1529 1530 1532 1534 1535 1537 1538 1540 1540 1540 1541 1543 1542 1543 1545 1546 1549 1551 1554 1556 1557 1559
1531 1530 1530 1529 1529 1529 1528 1528 1527 1526 1525 1524 1523 1522 1522 1521 1520 1519 1518 1518 1517 1517 1517 1517 1516 1516 1516 1516 1516 1516 1516 1516 1516 1517 1516 1515 1515 1515 1517 1518 1520 1521 1523 1525 1526 1528 1529 1529 1529 1529 1528 1525 1524 1525 1523 1525 1525 1523 1523 1524 1526 1525 1526 1529 1530 1530 1530 1531 1533 1534 1535 1537 1538 1540 1541 1540 1541 1542 1542 1543 1546 1547 1549 1551 1554 1556 1557 1559
1532 1531 1530 1530 1529 1529 1529 1528 1527 1527 1526 1525 1524 1523 1522 1521 1520 1519 1519 1518 1517 1517 1517 1516 1516 1516 1516 1516 1516 1516 1516 1516 1517 1517 1516 1515 1515 1516 1517 1518 1520 1522 1524 1525 1527 1528 1528 1529 1529 1527 1526 1524 1523 1524 1524 1525 1526 1525 1523 1524 1527 1527 1528 1530 1531 1531 1531 1532 1533 1534 1535 1536 1538 1540 1541 1541 1542 1543 1543 1545 1547 1549 1551 1552 1554 1556 1558 1559
1532 1531 1530 1530 1530 1529 1529 1528 1528 1527 1526 1525 1524 1523 1522 1521 1520 1519 1519 1518 1517 1517 1516 1516 1516 1516 1515 1515 1516 1516 1516 1517 1518 1518 1516 1516 1516 1516 1518 1519 1521 1522 1524 1526 1527 1528 1528 1529 1528 1526 1524 1523 1523 1523 1524 1525 1525 1526 1525 1524 1528 1529 1529 1531 1532 1532 1532 1533 1534 1534 1535 1537 1538 1540 1541 1542 1543 1544 1545 1546 1548 1550 1552 1554 1555 1556 1558 1560
1532 1531 1531 1530 1530 1530 1529 1529 1528 1527 1526 1525 1524 1523 1522 1521 1520 1519 1519 1518 1517 1517 1516 1516 1515 1516 1515 1516 1516 1515 1517 1518 1518 1518 1517 1517 1517 1518 1519 1520 1522 1523 1525 1527 1527 1528 1528 1528 1527 1526 1524 1523 1524 1523 1524 1524 1524 1526 1526 1526 1528 1529 1530 1532 1533 1533 1533 1534 1535 1536 1536 1537 1538 1540 1541 1543 1544 1545 1546 1548 1549 1551 1553 1554 1556 1557 1559 1560
1532 1532 1531 1531 1530 1530 1529 1529 1528 1527 1526 1525 1524 1523 1522 1521 1520 1519 1519 1518 1518 1517 1516 1516 1516 1516 1515 1516 1515 1514 1517 1519 1519 1519 1518 1518 1519 1519 1520 1522 1523 1524 1526 1527 1528 1528 1528 1527 1527 1526 1524 1524 1524 1523 1523 1525 1527 1526 1525 1527 1528 1529 1530 1531 1533 1535 1535 1535 1536 1536 1537 1538 1540 1540 1542 1543 1545 1546 1547 1549 1550 1552 1554 1555 1556 1558 1559 1560
1533 1532 1531 1531 1530 1530 1530 1529 1528 1528 1527 1525 1524 1523 1522 1521 1520 1519 1519 1518 1517 1517 1516 1516 1516 1515 1515 1516 1514 1515 1518 1519 1519 1519 1519 1519 1520 1520 1521 1522 1523 1525 1526 1527 1527 1528 1528 1527 1527 1527 1526 1524 1523 1523 1523 1525 1527 1526 1526 1527 1528 1529 1529 1531 1535 1536 1536 1536 1537 1537 1537 1538 1540 1541 1543 1544 1544 1546 1547 1549 1551 1552 1554 1555 1556 1558 1559 1560
1533 1532 1532 1531 1531 1530 1530 1529 1529 1528 1527 1525 1524 1523 1522 1521 1521 1520 1519 1518 1517 1517 1516 1516 1515 1515 1515 1516 1514 1515 1519 1520 1519 1520 1520 1520 1520 1521 1522 1523 1524 1525 1526 1527 1527 1528 1528 1528 1528 1528 1526 1524 1523 1524 1524 1525 1526 1526 1526 1528 1528 1529 1531 1532 1535 1537 1537 1537 1537 1537 1538 1539 1540 1541 1541 1543 1544 1546 1548 1549 1551 1552 1554 1556 1557 1558 1559 1560
1533 1533 1532 1532 1531 1531 1530 1530 1529 1528 1527 1525 1524 1523 1522 1521 1521 1520 1519 1518 1517 1516 1516 1515 1515 1515 1516 1516 1516 1516 1519 1520 1520 1520 1520 1520 1521 1521 1522 1523 1524 1525 1526 1527 1527 1527 1527 1528 1528 1527 1526 1524 1523 1523 1525 1525 1525 1526 1526 1528 1529 1529 1532 1533 1534 1536 1537 1538 1538 1538 1542 1542 1541 1541 1540 1542 1545 1546 1547 1549 1551 1552 1554 1556 1557 1558 1560 1561
1534 1533 1533 1532 1532 1531 1530 1530 1529 1528 1526 1525 1524 1523 1522 1522 1521 1520 1519 1518 1517 1516 1516 1516 1515 1516 1516 1516 1518 1519 1520 1520 1520 1521 1521 1521 1521 1521 1522 1522 1523 1524 1525 1526 1527 1527 1527 1528 1528 1527 1526 1525 1522 1524 1527 1524 1526 1526 1524 1525 1528 1532 1536 1533 1534 1536 1537 1538 1536 1538 1546 1545 1540 1540 1541 1543 1544 1545 1547 1549 1550 1552 1553 1555 1557 1558 1559 1561
1534 1534 1533 1533 1532 1531 1531 1530 1529 1527 1526 1525 1524 1523 1522 1521 1521 1520 1519 1518 1517 1517 1516 1516 1516 1516 1516 1517 1519 1520 1520 1520 1521 1521 1521 1522 1521 1521 1522 1521 1522 1523 1523 1525 1525 1526 1527 1528 1529 1527 1526 1525 1523 1524 1524 1523 1524 1523 1526 1527 1523 1533 1541 1535 1535 1536 1537 1540 1536 1539 1548 1547 1541 1538 1540 1543 1543 1544 1545 1547 1549 1551 1553 1555 1557 1558 1559 1560
1535 1534 1533 1533 1532 1532 1531 1530 1529 1527 1526 1525 1524 1523 1522 1521 1521 1520 1519 1518 1518 1517 1517 1517 1516 1516 1516 1518 1520 1520 1520 1521 1521 1521 1522 1522 1522 1522 1522 1522 1522 1522 1523 1524 1525 1526 1527 1528 1528 1526 1525 1525 1524 1524 1522 1522 1521 1520 1532 1535 1521 1529 1543 1537 1535 1535 1536 1539 1536 1540 1546 1544 1540 1537 1540 1542 1543 1544 1544 1546 1548 1550 1552 1554 1556 1558 1559 1560
1535 1534 1534 1533 1533 1532 1531 1530 1529 1528 1527 1525 1524 1522 1521 1521 1520 1520 1519 1519 1518 1518 1517 1517 1517 1517 1516 1518 1521 1520 1521 1521 1521 1522 1522 1522 1523 1523 1522 1522 1522 1522 1524 1524 1525 1526 1527 1528 1527 1525 1524 1524 1523 1521 1521 1523 1520 1517 1525 1529 1521 1530 1543 1540 1538 1535 1534 1537 1537 1539 1543 1541 1538 1537 1540 1542 1543 1544 1544 1545 1547 1549 1552 1553 1555 1557 1558 1560
1535 1534 1534 1533 1533 1532 1531 1530 1529 1528 1527 1525 1524 1522 1521 1521 1520 1520 1520 1519 1519 1518 1518 1518 1518 1517 1517 1519 1521 1520 1521 1521 1521 1521 1522 1522 1523 1523 1523 1523 1523 1524 1524 1525 1526 1526 1527 1527 1525 1525 1522 1521 1519 1517 1529 1537 1529 1521 1516 1519 1522 1526 1536 1542 1542 1538 1535 1537 1538 1539 1541 1542 1538 1536 1539 1541 1543 1544 1543 1545 1546 1548 1551 1552 1554 1556 1557 1559
1535 1534 1534 1533 1533 1532 1531 1530 1529 1528 1527 1526 1524 1523 1522 1521 1520 1520 1520 1519 1519 1518 1519 1518 1518 1518 1519 1520 1520 1520 1521 1521 1520 1521 1522 1522 1523 1524 1524 1524 1524 1525 1525 1526 1526 1525 1527 1525 1522 1523 1519 1521 1520 1518 1538 1547 1535 1528 1521 1519 1521 1522 1530 1538 1540 1539 1536 1538 1540 1541 1544 1543 1539 1537 1539 1541 1542 1544 1543 1545 1546 1548 1550 1552 1554 1555 1557 1559
1535 1534 1534 1533 1532 1532 1531 1531 1530 1529 1528 1527 1525 1524 1522 1521 1520 1520 1520 1519 1519 1518 1518 1519 1518 1518 1520 1520 1520 1521 1521 1520 1521 1521 1522 1522 1523 1524 1524 1525 1524 1524 1524 1523 1524 1524 1524 1523 1524 1525 1522 1523 1521 1518 1530 1532 1524 1524 1521 1518 1522 1528 1534 1532 1533 1535 1535 1539 1542 1543 1547 1545 1540 1538 1539 1541 1542 1543 1544 1544 1546 1548 1550 1551 1553 1554 1556 1558
1534 1534 1533 1533 1532 1532 1531 1531 1530 1529 1528 1527 1526 1524 1523 1521 1519 1519 1520 1520 1520 1519 1519 1520 1519 1518 1519 1519 1521 1521 1520 1521 1521 1522 1523 1523 1523 1524 1524 1525 1524 1523 1521 1519 1521 1522 1521 1524 1524 1523 1522 1520 1520 1518 1520 1519 1517 1518 1518 1520 1524 1532 1537 1530 1531 1535 1533 1541 1545 1543 1546 1545 1542 1539 1537 1540 1542 1542 1543 1544 1546 1547 1549 1550 1551 1553 1555 1557
1534 1534 1533 1533 1532 1532 1531 1531 1530 1529 1529 1528 1527 1525 1525 1524 1521 1521 1522 1520 1520 1520 1519 1520 1519 1519 1519 1519 1520 1520 1520 1520 1521 1522 1523 1523 1523 1523 1523 1523 1522 1521 1518 1516 1518 1520 1523 1525 1521 1518 1519 1518 1518 1519 1519 1519 1518 1517 1518 1523 1523 1526 1532 1530 1533 1537 1534 1541 1547 1544 1547 1546 1542 1540 1538 1539 1541 1541 1541 1543 1545 1546 1548 1549 1550 1552 1554 1556
1534 1534 1533 1533 1532 1531 1531 1531 1530 1529 1529 1528 1527 1527 1527 1526 1525 1524 1523 1520 1520 1520 1519 1519 1519 1519 1519 1520 1520 1520 1520 1519 1520 1522 1522 1523 1523 1521 1520 1520 1519 1517 1517 1518 1520 1523 1526 1523 1517 1516 1517 1518 1519 1519 1521 1521 1520 1519 1515 1522 1529 1526 1528 1532 1534 1537 1537 1542 1548 1547 1550 1548 1541 1539 1538 1538 1538 1540 1541 1542 1544 1545 1547 1548 1549 1551 1553 1555
1534 1533 1532 1532 1531 1531 1531 1530 1530 1529 1529 1528 1528 1528 1527 1526 1525 1524 1523 1521 1520 1520 1520 1519 1519 1520 1519 1519 1520 1519 1519 1517 1518 1521 1521 1522 1521 1520 1520 1518 1517 1517 1518 1520 1520 1524 1525 1518 1513 1516 1518 1519 1520 1520 1523 1524 1521 1518 1515 1526 1540 1533 1533 1540 1536 1534 1535 1537 1543 1546 1548 1547 1541 1539 1538 1538 1538 1539 1541 1542 1543 1545 1546 1548 1549 1550 1552 1554
1533 1532 1532 1532 1531 1531 1530 1530 1530 1529 1529 1528 1528 1528 1526 1525 1524 1523 1523 1520 1518 1519 1520 1520 1519 1519 1519 1519 1519 1519 1518 1518 1517 1519 1521 1521 1520 1521 1519 1517 1518 1519 1519 1518 1518 1519 1519 1514 1514 1517 1518 1519 1521 1521 1523 1525 1520 1518 1518 1527 1534 1527 1529 1538 1533 1531 1535 1538 1539 1542 1550 1547 1539 1541 1540 1537 1538 1538 1540 1541 1542 1544 1545 1547 1548 1549 1551 1553
1532 1532 1532 1531 1531 1531 1530 1530 1529 1529 1529 1528 1528 1527 1525 1525 1523 1523 1523 1519 1518 1518 1518 1519 1518 1519 1519 1518 1519 1519 1518 1518 1518 1519 1521 1520 1520 1520 1518 1519 1519 1518 1517 1518 1519 1519 1516 1515 1517 1519 1519 1519 1522 1520 1520 1524 1522 1521 1522 1521 1523 1521 1523 1531 1534 1534 1540 1545 1539 1541 1559 1555 1537 1538 1540 1537 1537 1536 1537 1539 1540 1542 1544 1546 1547 1548 1550 1552
1531 1531 1531 1531 1531 1530 1530 1530 1528 1529 1528 1527 1528 1525 1524 1524 1521 1523 1522 1516 1518 1520 1517 1518 1518 1518 1519 1518 1518 1519 1518 1518 1518 1519 1520 1520 1520 1519 1518 1518 1518 1517 1517 1518 1520 1518 1514 1515 1517 1518 1520 1520 1521 1520 1517 1520 1525 1531 1529 1521 1522 1521 1520 1527 1531 1532 1537 1542 1536 1537 1554 1559 1544 1539 1538 1536 1536 1535 1535 1537 1538 1539 1542 1544 1545 1546 1548 1550
1530 1530 1530 1530 1530 1530 1530 1529 1529 1529 1528 1528 1527 1524 1524 1522 1520 1523 1521 1519 1523 1521 1518 1517 1517 1518 1518 1518 1517 1518 1519 1518 1518 1519 1520 1520 1520 1519 1518 1517 1518 1518 1516 1519 1523 1518 1514 1518 1519 1519 1520 1520 1521 1519 1516 1517 1525 1534 1531 1525 1525 1522 1522 1526 1525 1526 1530 1534 1536 1534 1539 1549 1549 1540 1533 1533 1535 1535 1535 1535 1536 1537 1538 1541 1543 1545 1546 1548
1529 1529 1529 1529 1529 1529 1529 1529 1529 1528 1528 1528 1525 1524 1524 1520 1521 1521 1521 1531 1532 1520 1516 1517 1516 1518 1517 1518 1517 1516 1517 1517 1517 1519 1519 1520 1520 1519 1517 1515 1515 1516 1515 1521 1523 1517 1513 1517 1519 1519 1520 1520 1517 1514 1514 1518 1526 1531 1527 1528 1530 1524 1522 1523 1523 1523 1522 1530 1538 1534 1531 1540 1544 1535 1528 1530 1533 1534 1534 1533 1533 1534 1535 1537 1540 1542 1544 1547
1528 1528 1528 1528 1528 1528 1528 1528 1528 1528 1528 1526 1524 1524 1521 1520 1523 1518 1519 1533 1530 1516 1516 1517 1516 1517 1517 1516 1517 1516 1516 1515 1516 1518 1518 1519 1519 1518 1517 1514 1515 1516 1516 1518 1517 1514 1513 1514 1515 1515 1518 1517 1511 1510 1513 1516 1522 1525 1525 1528 1529 1525 1522 1524 1526 1523 1524 1533 1534 1527 1528 1534 1537 1534 1529 1530 1532 1531 1529 1528 1528 1531 1532 1534 1536 1539 1542 1544
1526 1526 1526 1527 1527 1528 1528 1527 1527 1527 1526 1525 1524 1523 1521 1522 1522 1521 1529 1534 1524 1515 1517 1515 1514 1516 1515 1514 1514 1514 1514 1514 1515 1517 1518 1518 1519 1518 1517 1516 1516 1515 1515 1516 1514 1512 1511 1514 1514 1513 1514 1511 1509 1512 1514 1516 1519 1522 1525 1530 1530 1525 1524 1527 1525 1525 1534 1537 1526 1520 1522 1527 1535 1536 1528 1528 1527 1523 1525 1526 1526 1528 1530 1532 1533 1536 1539 1541
1524 1525 1525 1525 1526 1526 1527 1527 1527 1526 1525 1525 1523 1521 1522 1521 1516 1524 1535 1529 1519 1516 1514 1513 1514 1513 1513 1514 1513 1512 1512 1513 1514 1515 1517 1516 1516 1517 1517 1518 1517 1516 1516 1515 1513 1510 1510 1515 1514 1511 1511 1510 1512 1516 1517 1517 1518 1523 1529 1535 1540 1534 1529 1532 1530 1533 1543 1536 1522 1518 1518 1524 1537 1533 1521 1520 1517 1514 1519 1522 1522 1524 1526 1528 1531 1533 1536 1538
1523 1523 1523 1523 1525 1525 1526 1526 1525 1525 1525 1523 1523 1522 1522 1522 1520 1525 1528 1521 1520 1519 1513 1514 1515 1512 1514 1514 1513 1512 1512 1513 1513 1513 1513 1513 1513 1514 1514 1514 1514 1518 1518 1513 1511 1510 1509 1510 1508 1509 1510 1509 1513 1517 1521 1522 1520 1526 1532 1541 1557 1552 1538 1540 1538 1536 1540 1533 1521 1519 1522 1528 1529 1519 1514 1516 1513 1511 1513 1514 1515 1518 1520 1524 1527 1530 1533 1535
1522 1522 1522 1522 1523 1523 1524 1525 1524 1525 1524 1523 1523 1520 1520 1526 1529 1525 1520 1519 1521 1517 1513 1516 1514 1512 1515 1514 1513 1512 1512 1513 1513 1512 1513 1512 1513 1512 1511 1511 1510 1516 1517 1511 1511 1510 1507 1507 1505 1509 1512 1508 1509 1514 1521 1525 1523 1528 1532 1542 1562 1557 1547 1552 1541 1528 1534 1532 1521 1517 1524 1529 1522 1512 1512 1513 1512 1512 1511 1513 1514 1514 1517 1520 1523 1527 1530 1533
1520 1520 1520 1520 1521 1522 1523 1523 1524 1523 1523 1523 1521 1519 1523 1530 1528 1522 1519 1518 1516 1513 1513 1515 1513 1513 1514 1513 1512 1511 1513 1514 1512 1512 1514 1513 1514 1512 1510 1511 1511 1513 1513 1511 1511 1508 1511 1513 1505 1506 1509 1506 1506 1507 1510 1516 1520 1524 1524 1534 1549 1544 1547 1559 1549 1540 1541 1528 1520 1525 1526 1522 1521 1518 1512 1509 1510 1511 1512 1513 1513 1513 1515 1518 1521 1524 1527 1530
1519 1519 1519 1519 1520 1521 1521 1522 1523 1522 1523 1521 1519 1520 1525 1527 1522 1519 1519 1516 1514 1514 1513 1512 1512 1513 1513 1513 1512 1510 1512 1514 1512 1512 1513 1510 1512 1512 1510 1511 1511 1510 1512 1515 1513 1508 1512 1512 1501 1500 1503 1501 1504 1501 1498 1508 1518 1520 1519 1529 1538 1532 1532 1540 1538 1541 1544 1530 1521 1527 1521 1510 1514 1515 1507 1508 1510 1509 1512 1512 1511 1513 1515 1518 1521 1522 1524 1527
1518 1518 1518 1518 1518 1519 1520 1521 1521 1522 1522 1520 1519 1520 1521 1519 1517 1517 1517 1516 1516 1516 1513 1512 1512 1512 1512 1513 1513 1512 1511 1512 1512 1512 1513 1511 1511 1512 1511 1510 1510 1509 1510 1513 1515 1512 1515 1512 1502 1502 1503 1499 1501 1500 1496 1505 1514 1520 1523 1525 1526 1521 1521 1532 1534 1532 1544 1546 1525 1513 1513 1510 1514 1516 1509 1509 1511 1509 1511 1512 1511 1514 1515 1518 1521 1521 1523 1526
1517 1518 1518 1517 1517 1518 1519 1520 1520 1522 1521 1518 1519 1520 1516 1515 1516 1515 1516 1516 1516 1515 1514 1513 1513 1512 1513 1511 1512 1513 1510 1511 1512 1511 1512 1514 1512 1512 1513 1511 1510 1509 1508 1510 1512 1512 1515 1514 1504 1503 1505 1501 1500 1501 1499 1500 1506 1518 1525 1518 1516 1521 1522 1532 1542 1540 1548 1552 1524 1505 1513 1516 1520 1525 1517 1511 1514 1513 1512 1511 1511 1513 1515 1518 1520 1521 1524 1526
1517 1517 1517 1517 1517 1517 1518 1519 1520 1520 1519 1517 1519 1520 1516 1515 1515 1514 1515 1516 1515 1515 1514 1513 1513 1512 1513 1511 1510 1511 1510 1511 1512 1510 1511 1513 1513 1512 1512 1511 1510 1509 1507 1509 1510 1508 1510 1515 1508 1500 1504 1503 1501 1504 1507 1504 1503 1508 1512 1509 1514 1530 1532 1531 1541 1549 1553 1549 1529 1512 1510 1511 1516 1524 1522 1517 1518 1518 1515 1513 1512 1512 1514 1516 1518 1521 1524 1526
1517 1517 1516 1516 1516 1516 1517 1518 1519 1519 1518 1517 1518 1518 1515 1514 1514 1515 1515 1515 1515 1515 1513 1512 1512 1512 1512 1512 1511 1511 1511 1511 1509 1510 1511 1513 1514 1513 1511 1511 1510 1509 1508 1508 1509 1506 1507 1516 1515 1503 1501 1504 1503 1506 1512 1512 1507 1506 1507 1508 1510 1519 1527 1528 1531 1539 1546 1550 1543 1524 1514 1519 1521 1519 1521 1521 1519 1520 1519 1516 1513 1512 1514 1515 1516 1520 1522 1525
1517 1516 1514 1515 1516 1516 1516 1518 1518 1517 1516 1515 1514 1514 1514 1513 1513 1513 1515 1514 1513 1513 1512 1512 1512 1512 1511 1511 1510 1510 1511 1510 1508 1509 1510 1511 1513 1513 1511 1512 1511 1509 1509 1507 1507 1506 1506 1513 1518 1510 1503 1507 1508 1507 1511 1511 1510 1511 1512 1513 1514 1514 1518 1524 1525 1523 1529 1544 1546 1532 1527 1533 1526 1518 1521 1522 1519 1519 1520 1518 1514 1513 1514 1515 1517 1520 1521 1524
1517 1514 1513 1514 1515 1515 1516 1517 1515 1514 1513 1513 1512 1512 1514 1513 1512 1512 1514 1514 1513 1512 1512 1512 1511 1511 1511 1511 1510 1510 1511 1511 1509 1509 1510 1510 1512 1513 1512 1512 1512 1509 1509 1508 1506 1507 1509 1510 1515 1516 1512 1511 1509 1505 1505 1506 1506 1508 1509 1508 1511 1514 1518 1529 1533 1520 1513 1524 1531 1527 1532 1534 1524 1519 1521 1520 1519 1519 1519 1519 1516 1514 1516 1517 1518 1520 1522 1524
1516 1513 1512 1514 1514 1514 1516 1514 1511 1511 1511 1510 1510 1511 1512 1513 1512 1511 1512 1513 1512 1511 1511 1512 1511 1511 1511 1510 1510 1510 1510 1511 1510 1510 1510 1509 1509 1511 1512 1512 1513 1510 1509 1510 1506 1506 1510 1509 1515 1522 1517 1509 1508 1506 1504 1504 1502 1502 1504 1505 1507 1509 1513 1526 1538 1529 1514 1513 1514 1514 1525 1530 1523 1521 1521 1519 1520 1520 1520 1521 1517 1516 1518 1519 1520 1521 1522 1524
1516 1514 1513 1514 1513 1514 1515 1511 1510 1512 1510 1508 1509 1510 1511 1512 1511 1511 1511 1511 1511 1510 1510 1511 1510 1511 1511 1510 1510 1511 1510 1512 1513 1511 1511 1511 1510 1511 1512 1512 1512 1510 1508 1510 1507 1507 1510 1511 1514 1520 1517 1509 1506 1505 1503 1502 1503 1505 1504 1507 1510 1508 1507 1512 1521 1524 1516 1512 1512 1515 1527 1534 1527 1522 1522 1521 1521 1521 1522 1522 1519 1519 1520 1520 1522 1523 1523 1525
1517 1515 1514 1514 1513 1514 1513 1510 1509 1509 1507 1507 1509 1509 1510 1510 1509 1509 1509 1508 1508 1509 1509 1509 1509 1510 1510 1509 1510 1510 1510 1513 1514 1511 1511 1512 1511 1511 1512 1512 1511 1509 1509 1510 1509 1509 1511 1513 1514 1521 1531 1530 1518 1514 1515 1507 1505 1508 1507 1509 1511 1507 1508 1509 1510 1517 1519 1514 1511 1517 1529 1535 1528 1522 1522 1521 1520 1521 1522 1522 1522 1522 1522 1523 1523 1523 1524 1525
1516 1514 1514 1514 1514 1513 1511 1507 1505 1505 1505 1508 1509 1508 1508 1508 1508 1508 1508 1507 1507 1507 1507 1508 1508 1509 1509 1509 1510 1510 1510 1512 1513 1512 1512 1511 1511 1511 1512 1512 1511 1509 1510 1511 1509 1509 1510 1512 1517 1522 1534 1540 1531 1529 1528 1517 1511 1513 1509 1509 1510 1506 1509 1512 1510 1517 1523 1516 1509 1514 1526 1532 1526 1522 1522 1521 1521 1522 1522 1523 1524 1524 1525 1525 1525 1525 1525 1526
1517 1514 1512 1512 1512 1512 1510 1508 1507 1505 1505 1508 1508 1507 1507 1506 1506 1507 1507 1507 1507 1507 1507 1507 1508 1509 1509 1510 1511 1511 1510 1509 1510 1511 1512 1510 1510 1511 1511 1512 1511 1510 1511 1512 1509 1510 1510 1511 1517 1520 1522 1527 1528 1527 1522 1516 1520 1523 1514 1509 1509 1506 1507 1509 1510 1513 1515 1514 1513 1513 1520 1527 1526 1523 1524 1523 1522 1523 1524 1525 1526 1527 1527 1527 1526 1527 1527 1527
1518 1515 1513 1513 1512 1510 1508 1508 1508 1506 1505 1507 1507 1505 1506 1505 1504 1506 1507 1506 1506 1507 1507 1507 1507 1509 1510 1510 1511 1511 1510 1510 1510 1511 1512 1511 1509 1510 1511 1512 1511 1511 1512 1512 1509 1509 1511 1512 1514 1517 1519 1521 1523 1521 1514 1513 1520 1522 1515 1511 1509 1506 1506 1508 1511 1512 1511 1515 1520 1515 1514 1521 1525 1523 1524 1524 1524 1525 1526 1527 1528 1528 1528 1528 1528 1528 1528 1529
1518 1517 1517 1517 1515 1510 1508 1508 1508 1507 1506 1506 1506 1505 1505 1505 1504 1505 1506 1505 1506 1506 1507 1508 1508 1507 1507 1508 1509 1511 1512 1512 1512 1512 1512 1512 1510 1510 1511 1510 1510 1511 1511 1510 1509 1508 1510 1513 1512 1515 1523 1523 1520 1517 1512 1510 1515 1516 1514 1512 1510 1508 1508 1509 1510 1510 1509 1515 1521 1518 1514 1518 1522 1522 1524 1526 1526 1528 1529 1529 1529 1529 1529 1529 1529 1529 1530 1530
1519 1518 1518 1518 1516 1512 1510 1510 1510 1509 1507 1506 1506 1505 1505 1504 1503 1502 1502 1504 1506 1505 1505 1507 1507 1504 1504 1505 1508 1511 1513 1513 1514 1514 1512 1512 1512 1511 1511 1511 1510 1510 1508 1508 1509 1509 1511 1514 1514 1516 1522 1522 1517 1515 1512 1510 1512 1512 1513 1512 1511 1511 1510 1510 1511 1509 1508 1512 1515 1515 1516 1521 1523 1525 1526 1528 1528 1530 1532 1531 1531 1531 1531 1531 1530 1530 1531 1531
1522 1520 1519 1519 1516 1513 1512 1511 1510 1509 1506 1507 1507 1504 1503 1503 1503 1501 1501 1503 1504 1503 1504 1506 1504 1502 1503 1505 1507 1509 1509 1508 1511 1512 1511 1512 1513 1511 1511 1510 1508 1508 1508 1507 1509 1510 1512 1517 1516 1514 1519 1522 1518 1515 1513 1511 1511 1512 1513 1512 1512 1513 1512 1512 1512 1511 1511 1513 1513 1514 1520 1526 1528 1528 1528 1529 1530 1532 1533 1533 1533 1533 1533 1532 1532 1532 1532 1532
1523 1522 1521 1520 1515 1512 1512 1510 1509 1509 1506 1505 1505 1502 1502 1502 1502 1502 1501 1501 1501 1501 1501 1502 1501 1501 1504 1507 1507 1506 1504 1505 1507 1507 1508 1509 1510 1509 1509 1508 1508 1509 1509 1509 1510 1510 1512 1516 1517 1516 1520 1521 1517 1516 1515 1511 1509 1512 1514 1514 1513 1514 1514 1514 1514 1514 1514 1516 1516 1517 1521 1525 1528 1529 1530 1531 1532 1534 1535 1535 1535 1535 1535 1535 1534 1534 1534 1534
1523 1522 1521 1521 1516 1512 1511 1509 1508 1509 1506 1502 1502 1502 1503 1502 1502 1504 1503 1500 1499 1500 1500 1500 1499 1501 1505 1507 1507 1504 1503 1505 1506 1506 1508 1509 1508 1508 1509 1509 1509 1509 1508 1509 1511 1511 1512 1516 1516 1517 1521 1517 1513 1515 1515 1514 1518 1520 1517 1515 1514 1514 1515 1515 1515 1515 1515 1515 1517 1519 1520 1523 1526 1528 1530 1533 1536 1537 1538 1538 1537 1537 1536 1536 1536 1536 1536 1536